Stuttgart Echterdingen, Germany

08:23 AM CEST am 01. Mai 2017 (GMT +0200)
Stuttgart

Wetter Verlauf für EDDS - April, 2017

Change the Weather History Date:

Freitag, April 21, 2017

  Actual Average Record
Temperature  
mittlereTemperatur 42 °F -  
Max. Temperatur 57 °F 59 °F 75 °F (2011)
Min.Temperatur 28 °F 39 °F 26 °F (1997)
Degree Days  
Heizgradtage 22    
Moisture  
Taupunkt 26 °F    
Average Humidity 55    
Maximum Humidity 93    
Minimum Humidity 27    
Niederschlag  
Niederschlag 0.00 inch - - ()
Luftdruck in Meereshöhe  
Luftdruck in Meereshöhe 30.40 inch    
Wind  
Windgeschwindigkeit 3 mph ()    
Max. Windgeschwindigkeit 10 mph    
Max Gust Speed -    
Averages and records for this station are not official NWS values.
T = Trace of Precipitation, MM = Missing Value Source: Averaged Metar Reports

Daily Weather History Graph

Daily Weather History Graph

Search for Another Location

Airport or City:

Trip Planner

Search our weather history database for the weather conditions in past years. The results will help you decide how hot, cold, wet, or windy it might be!

Date:

Astronomie

Apr. 21, 2017 Aufgang Untergang
Genaue Zeit 06:20 CEST 20:23 CEST
Bürgerliche Dämmerung 05:47 CEST 20:57 CEST
Nautische Dämmerung 05:05 CEST 21:39 CEST
Astronomische Dämmerung 04:18 CEST 22:27 CEST
Mond 04:01 CEST (4/21) 14:17 CEST (4/21)
Länge des sichtbaren Lichts 15h 10m
Tageslänge
14h 02m
Letztes Viertel, 30% of the Moon is Illuminated
Apr 21
Letztes Viertel
Apr 26
Neu
Mai 3
Erstes Viertel
Mai 10
Vollmond
Mai 19
Letztes Viertel

Hourly Weather History & Observations

Zeit (CEST) Temp. Windchill Taupunkt Feuchtigkeit Druck Sichtweite Wind Dir Windgeschwindigkeit Böengeschwindigkeit Precip Ereignisse Wetterzustand
12:20 AM 33.8 °F - 23.0 °F 65% 30.48 inch - Wechselnd 1.2 mph - N/A   Heiter
12:50 AM 33.8 °F - 23.0 °F 65% 30.48 inch - Wechselnd 1.2 mph - N/A   Heiter
1:20 AM 32.0 °F - 23.0 °F 69% 30.48 inch - Wechselnd 2.3 mph - N/A   Heiter
1:50 AM 30.2 °F - 23.0 °F 75% 30.48 inch - Ost-Nordost 2.3 mph - N/A   Heiter
2:20 AM 30.2 °F - 24.8 °F 80% 30.48 inch - Wechselnd 1.2 mph - N/A   Heiter
2:50 AM 30.2 °F - 24.8 °F 80% 30.48 inch - Wechselnd 1.2 mph - N/A   Heiter
3:20 AM 30.2 °F - 24.8 °F 80% 30.48 inch - Wechselnd 1.2 mph - N/A   Heiter
3:50 AM 30.2 °F - 26.6 °F 86% 30.45 inch - Wechselnd 1.2 mph - N/A   Heiter
4:20 AM 28.4 °F - 24.8 °F 86% 30.45 inch - Ost 2.3 mph - N/A   Heiter
4:50 AM 28.4 °F - 24.8 °F 86% 30.45 inch - Ost-Nordost 2.3 mph - N/A   Heiter
5:20 AM 28.4 °F - 24.8 °F 86% 30.45 inch - Wechselnd 1.2 mph - N/A   Heiter
5:50 AM 28.4 °F 24.6 °F 24.8 °F 86% 30.45 inch - Ost-Südost 3.5 mph - N/A   Heiter
6:20 AM 28.4 °F - 26.6 °F 93% 30.45 inch - Wechselnd 1.2 mph - N/A   Heiter
6:50 AM 30.2 °F - 26.6 °F 86% 30.45 inch - Südost 2.3 mph - N/A   Heiter
7:20 AM 30.2 °F - 26.6 °F 86% 30.45 inch - Wechselnd 1.2 mph - N/A   Heiter
7:50 AM 32.0 °F - 28.4 °F 87% 30.45 inch - Wechselnd 2.3 mph - N/A   Heiter
8:20 AM 33.8 °F - 28.4 °F 81% 30.45 inch - Wechselnd 2.3 mph - N/A   Heiter
8:50 AM 33.8 °F - 28.4 °F 81% 30.45 inch - Wechselnd 2.3 mph - N/A   Heiter
9:20 AM 37.4 °F 34.9 °F 32.0 °F 81% 30.45 inch - Ost-Südost 3.5 mph - N/A   Heiter
9:50 AM 42.8 °F 40.1 °F 28.4 °F 57% 30.45 inch - Südost 4.6 mph - N/A   Heiter
10:20 AM 46.4 °F 44.3 °F 28.4 °F 50% 30.48 inch - Südost 4.6 mph - N/A   Heiter
10:50 AM 48.2 °F - 24.8 °F 40% 30.45 inch - Südost 4.6 mph - N/A   Heiter
11:20 AM 48.2 °F - 26.6 °F 43% 30.45 inch - Ost 5.8 mph - N/A   Heiter
11:50 AM 50.0 °F - 28.4 °F 43% 30.45 inch - Wechselnd 4.6 mph - N/A   Heiter
12:20 PM 50.0 °F - 28.4 °F 43% 30.45 inch - Wechselnd 4.6 mph - N/A   Heiter
12:50 PM 51.8 °F - 24.8 °F 35% 30.42 inch - Süd-Südost 6.9 mph - N/A   Heiter
1:20 PM 53.6 °F - 24.8 °F 33% 30.42 inch - Süd-Südost 6.9 mph - N/A   Heiter
1:50 PM 53.6 °F - 26.6 °F 35% 30.42 inch - Wechselnd 4.6 mph - N/A   Heiter
2:20 PM 55.4 °F - 23.0 °F 29% 30.39 inch - Wechselnd 4.6 mph - N/A   Heiter
2:50 PM 55.4 °F - 24.8 °F 31% 30.39 inch - Wechselnd 4.6 mph - N/A   Heiter
3:20 PM 55.4 °F - 23.0 °F 29% 30.36 inch - Wechselnd 4.6 mph - N/A   Heiter
3:50 PM 57.2 °F - 24.8 °F 29% 30.36 inch - Wechselnd 4.6 mph - N/A   Heiter
4:20 PM 57.2 °F - 24.8 °F 29% 30.33 inch - Wechselnd 3.5 mph - N/A   Heiter
4:50 PM 57.2 °F - 23.0 °F 27% 30.33 inch - Nord-Nordwest 9.2 mph - N/A   Heiter
5:20 PM 57.2 °F - 23.0 °F 27% 30.33 inch - Nord-Nordwest 10.4 mph - N/A   Heiter
5:50 PM 57.2 °F - 24.8 °F 29% 30.33 inch - Nord 9.2 mph - N/A   Heiter
6:20 PM 57.2 °F - 24.8 °F 29% 30.33 inch - Nord 8.1 mph - N/A   Heiter
6:50 PM 57.2 °F - 24.8 °F 29% 30.33 inch - Nordwest 9.2 mph - N/A   Heiter
7:20 PM 55.4 °F - 24.8 °F 31% 30.30 inch - West-Nordwest 9.2 mph - N/A   Heiter
7:50 PM 55.4 °F - 24.8 °F 31% 30.30 inch - Nord-Nordwest 6.9 mph - N/A   Heiter
8:20 PM 53.6 °F - 24.8 °F 33% 30.30 inch - Nord-Nordwest 4.6 mph - N/A   Heiter
8:50 PM 51.8 °F - 26.6 °F 38% 30.33 inch - West-Nordwest 3.5 mph - N/A   Heiter
9:20 PM 50.0 °F - 28.4 °F 43% 30.30 inch - West-Südwest 3.5 mph - N/A   Heiter
9:50 PM 46.4 °F 45.2 °F 28.4 °F 50% 30.30 inch - West-Südwest 3.5 mph - N/A   Heiter
10:20 PM 46.4 °F 44.3 °F 28.4 °F 50% 30.30 inch - West-Nordwest 4.6 mph - N/A   Heiter
10:50 PM 42.8 °F 40.1 °F 28.4 °F 57% 30.30 inch - West 4.6 mph - N/A   Heiter
11:20 PM 42.8 °F 41.1 °F 28.4 °F 57% 30.30 inch - West 3.5 mph - N/A   Heiter
11:50 PM 42.8 °F - 28.4 °F 57% 30.30 inch - Ost-Südost 2.3 mph - N/A   Heiter